San Jose, Costa Rica

1:45 PM CST on February 20, 2018 (GMT -0600)
Juan Santamaria International

Weather History for MROC - January, 2013

Change the Weather History Date:

Sunday, January 20, 2013

  Actual Average Record
Temperature  
Mean Temperature 74 °F -  
Max Temperature 81 °F 81 °F 102 °F (1998)
Min Temperature 67 °F 64 °F 35 °F (2002)
Cooling Degree Days 9    
Growing Degree Days 24 (Base 50)    
Moisture  
Dew Point 57 °F    
Average Humidity 56    
Maximum Humidity 73    
Minimum Humidity 35    
Precipitation  
Precipitation 0.00 in 0.01 in - ()
Sea Level Pressure  
Sea Level Pressure 29.94 in    
Wind  
Wind Speed 14 mph ()    
Max Wind Speed 70 mph    
Max Gust Speed 34 mph    
Visibility 7.9 miles    
Events      
Averages and records for this station are not official NWS values.
T = Trace of Precipitation, MM = Missing Value Source: Averaged Metar Reports

Daily Weather History Graph

Daily Weather History Graph

Search for Another Location

Airport or City:

Trip Planner

Search our weather history database for the weather conditions in past years. The results will help you decide how hot, cold, wet, or windy it might be!

Date:

Astronomy

Jan. 20, 2013 Rise Set
Actual Time 5:59 AM CST 5:37 PM CST
Civil Twilight 5:36 AM CST 5:59 PM CST
Nautical Twilight 5:11 AM CST 6:25 PM CST
Astronomical Twilight 4:45 AM CST 6:50 PM CST
Moon 12:34 PM CST 12:36 AM CST
Length of Visible Light 12h 22m
Length of Day
11h 37m
Waxing Gibbous, 66% of the Moon is Illuminated
Jan 20
Waxing Gibbous
Jan 26
Full
Feb 3
Last Quarter
Feb 10
New
Feb 17
First Quarter

Hourly Weather History & Observations

Time (CST) Temp. Dew Point Humidity Pressure Visibility Wind Dir Wind Speed Gust Speed Precip Events Conditions
12:00 AM 69 °F 56 °F 54% 29.85 in 12 mi East 13.8 mph - -  
12:00 AM 69.8 °F 55.4 °F 60% 30.00 in - East 13.8 mph 26.5 mph N/A   Clear
1:00 AM 68.0 °F 57.2 °F 68% 29.97 in - East 12.7 mph - N/A   Clear
2:00 AM 68.0 °F 57.2 °F 68% 29.95 in - ESE 12.7 mph - N/A   Clear
3:00 AM 68 °F 57 °F 60% 29.80 in 12 mi East 15.0 mph - -   Scattered Clouds
3:00 AM 68.0 °F 57.2 °F 68% 29.95 in 6.2 mi East 15.0 mph 26.5 mph N/A   Partly Cloudy
4:00 AM 68.0 °F 57.2 °F 68% 29.95 in 6.2 mi East 15.0 mph 26.5 mph N/A   Partly Cloudy
5:00 AM 68.0 °F 57.2 °F 68% 29.97 in - East 13.8 mph 26.5 mph N/A   Clear
6:00 AM 68 °F 58 °F 63% 29.86 in 12 mi East 15.0 mph - -   Scattered Clouds
6:00 AM 68.0 °F 59.0 °F 73% 29.98 in 6.2 mi East 15.0 mph 26.5 mph N/A   Scattered Clouds
7:00 AM 69.8 °F 57.2 °F 64% 30.01 in - ESE 11.5 mph 23.0 mph N/A   Clear
8:00 AM 73.4 °F 57.2 °F 57% 30.04 in 6.2 mi East 12.7 mph 26.5 mph N/A   Scattered Clouds
9:00 AM 75.2 °F 57.2 °F 53% 30.03 in - East 17.3 mph 28.8 mph N/A   Clear
10:00 AM 77.0 °F 57.2 °F 50% 30.03 in - East 17.3 mph 29.9 mph N/A   Clear
11:00 AM 78.8 °F 57.2 °F 47% 30.01 in - East 18.4 mph 29.9 mph N/A   Clear
12:00 PM - 57 °F % 29.83 in 1 mi NNE 70.2 mph - -   Scattered Clouds
12:00 PM 78.8 °F 57.2 °F 47% 29.99 in 6.2 mi East 19.6 mph 32.2 mph N/A   Partly Cloudy
1:00 PM 78.8 °F 57.2 °F 47% 29.97 in 6.2 mi East 17.3 mph 28.8 mph N/A   Partly Cloudy
2:00 PM 78.8 °F 57.2 °F 47% 29.93 in 6.2 mi ENE 18.4 mph 32.2 mph N/A   Partly Cloudy
3:00 PM 79 °F 56 °F 35% 29.75 in 12 mi ENE 16.1 mph - -   Scattered Clouds
3:00 PM 78.8 °F 57.2 °F 47% 29.92 in 6.2 mi ENE 16.1 mph 34.5 mph N/A   Partly Cloudy
4:00 PM 77.0 °F 57.2 °F 50% 29.91 in 6.2 mi East 16.1 mph 28.8 mph N/A   Partly Cloudy
5:00 PM 75.2 °F 57.2 °F 53% 29.92 in 6.2 mi East 16.1 mph 27.6 mph N/A   Partly Cloudy
6:00 PM 72 °F 56 °F 46% 29.81 in 12 mi East 12.7 mph - -  
6:00 PM 71.6 °F 55.4 °F 57% 29.94 in - East 12.7 mph 25.3 mph N/A   Clear
7:00 PM 71.6 °F 55.4 °F 57% 29.96 in - ENE 17.3 mph 28.8 mph N/A   Clear
8:00 PM 71.6 °F 53.6 °F 53% 29.98 in - ENE 15.0 mph 26.5 mph N/A   Clear
9:00 PM 70 °F 55 °F 49% 29.86 in 12 mi East 11.5 mph - -  
9:00 PM 69.8 °F 55.4 °F 60% 30.01 in - East 11.5 mph 23.0 mph N/A   Clear
10:00 PM 69.8 °F 55.4 °F 60% 30.02 in - East 11.5 mph - N/A   Clear
11:00 PM 69.8 °F 55.4 °F 60% 30.00 in - East 13.8 mph - N/A   Clear